Crossville, TN

3:05 PM CDT on June 27, 2017 (GMT -0500)
Crossville Memorial-Whitson

Weather History for KCSV - December, 2013

Change the Weather History Date:

Saturday, December 21, 2013

  Actual Average Record
Temperature  
Mean Temperature 60 °F 37 °F  
Max Temperature 66 °F 46 °F 67 °F (1956)
Min Temperature 55 °F 29 °F 0 °F (1989)
Degree Days  
Heating Degree Days 4    
Month to date heating degree days  
Since 1 July heating degree days  
Cooling Degree Days 0    
Month to date cooling degree days  
Year to date cooling degree days  
Growing Degree Days 10 (Base 50)    
Moisture  
Dew Point 58 °F    
Average Humidity 88    
Maximum Humidity 94    
Minimum Humidity 81    
Precipitation  
Precipitation 0.02 in 0.15 in 1.53 in (1967)
Month to date precipitation 3.49  
Year to date precipitation 53.63  
Sea Level Pressure  
Sea Level Pressure 29.87 in    
Wind  
Wind Speed 10 mph (South)    
Max Wind Speed 15 mph    
Max Gust Speed 34 mph    
Visibility 9 miles    
Events Rain    
T = Trace of Precipitation, MM = Missing Value Source: NWS Daily Summary

Daily Weather History Graph

Daily Weather History Graph

Search for Another Location

Airport or City:

Trip Planner

Search our weather history database for the weather conditions in past years. The results will help you decide how hot, cold, wet, or windy it might be!

Date:

Astronomy

Dec. 21, 2013 Rise Set
Actual Time 6:47 AM CST 4:30 PM CST
Civil Twilight 6:18 AM CST 4:58 PM CST
Nautical Twilight 5:46 AM CST 5:30 PM CST
Astronomical Twilight 5:15 AM CST 6:02 PM CST
Moon 8:38 PM CST (12/21) 9:19 AM CST (12/21)
Length of Visible Light 10h 40m
Length of Day
9h 43m
Waning Gibbous, 84% of the Moon is Illuminated
Dec 21
Waning Gibbous
Dec 25
Last Quarter
Jan 1
New
Jan 7
First Quarter
Jan 15
Full

Hourly Weather History & Observations

Time (CST) Temp. Dew Point Humidity Pressure Visibility Wind Dir Wind Speed Gust Speed Precip Events Conditions
12:11 AM 55.4 °F 51.8 °F 88% 30.02 in 10.0 mi South 9.2 mph 16.1 mph N/A   Mostly Cloudy
12:53 AM 55.9 °F 52.0 °F 87% 29.99 in 10.0 mi South 8.1 mph - N/A   Overcast
1:53 AM 55.9 °F 53.1 °F 90% 29.99 in 10.0 mi South 5.8 mph - N/A   Overcast
2:53 AM 55.9 °F 53.1 °F 90% 29.97 in 9.0 mi South 5.8 mph - N/A   Overcast
3:53 AM 57.0 °F 54.0 °F 89% 29.96 in 10.0 mi South 9.2 mph 20.7 mph N/A   Overcast
4:50 AM 57.2 °F 53.6 °F 88% 29.97 in 10.0 mi South 11.5 mph 21.9 mph N/A   Overcast
4:53 AM 57.9 °F 54.0 °F 87% 29.95 in 10.0 mi South 10.4 mph 20.7 mph N/A   Overcast
5:53 AM 57.0 °F 54.0 °F 89% 29.94 in 10.0 mi South 10.4 mph 19.6 mph N/A   Overcast
6:53 AM 57.9 °F 54.0 °F 87% 29.92 in 10.0 mi South 10.4 mph 24.2 mph N/A   Overcast
7:53 AM 59.0 °F 55.0 °F 87% 29.91 in 10.0 mi South 8.1 mph 17.3 mph N/A   Overcast
8:36 AM 60.8 °F 55.4 °F 82% 29.93 in 9.0 mi South 11.5 mph 24.2 mph N/A   Overcast
8:53 AM 60.1 °F 57.0 °F 90% 29.91 in 10.0 mi South 10.4 mph 25.3 mph N/A   Overcast
9:53 AM 61.0 °F 57.0 °F 87% 29.90 in 10.0 mi South 13.8 mph 25.3 mph N/A   Overcast
10:53 AM 62.1 °F 57.9 °F 86% 29.88 in 10.0 mi South 13.8 mph 25.3 mph N/A   Overcast
11:53 AM 62.1 °F 57.9 °F 86% 29.88 in 10.0 mi South 9.2 mph 23.0 mph N/A   Overcast
12:53 PM 61.0 °F 59.0 °F 93% 29.85 in 2.5 mi South 8.1 mph 18.4 mph N/A   Overcast
1:00 PM 60.8 °F 59.0 °F 94% 29.88 in 10.0 mi South 5.8 mph 16.1 mph N/A   Overcast
1:53 PM 62.1 °F 59.0 °F 90% 29.83 in 8.0 mi South 12.7 mph 21.9 mph N/A   Overcast
2:46 PM 62.6 °F 60.8 °F 94% 29.85 in 10.0 mi South 15.0 mph 28.8 mph N/A   Overcast
2:53 PM 64.0 °F 60.1 °F 87% 29.83 in 10.0 mi South 10.4 mph 28.8 mph N/A   Overcast
3:29 PM 64.4 °F 60.8 °F 88% 29.85 in 10.0 mi South 9.2 mph 23.0 mph N/A   Overcast
3:37 PM 64.4 °F 60.8 °F 88% 29.85 in 9.0 mi South 9.2 mph 16.1 mph N/A   Mostly Cloudy
3:53 PM 63.0 °F 61.0 °F 93% 29.83 in 4.0 mi South 9.2 mph 19.6 mph 0.00 in Rain Light Rain
4:09 PM 62.6 °F 60.8 °F 94% 29.86 in 4.0 mi South 8.1 mph 16.1 mph 0.00 in Rain Light Rain
4:17 PM 62.6 °F 60.8 °F 94% 29.86 in 8.0 mi South 11.5 mph 24.2 mph 0.00 in   Overcast
4:53 PM 64.0 °F 61.0 °F 90% 29.81 in 10.0 mi South 11.5 mph 23.0 mph 0.01 in   Overcast
5:33 PM 64.4 °F 60.8 °F 88% 29.85 in 10.0 mi South 13.8 mph 25.3 mph N/A   Overcast
5:53 PM 64.9 °F 61.0 °F 87% 29.81 in 10.0 mi South 13.8 mph 24.2 mph N/A   Overcast
6:18 PM 64.4 °F 60.8 °F 88% 29.84 in 10.0 mi South 13.8 mph 27.6 mph N/A   Overcast
6:53 PM 64.9 °F 61.0 °F 87% 29.79 in 10.0 mi South 12.7 mph 28.8 mph N/A   Overcast
7:53 PM 66.0 °F 61.0 °F 84% 29.78 in 10.0 mi South 15.0 mph 29.9 mph 0.00 in   Overcast
8:53 PM 66.0 °F 62.1 °F 87% 29.79 in 9.0 mi South 15.0 mph 34.5 mph N/A   Overcast
9:21 PM 64.4 °F 62.6 °F 94% 29.82 in 10.0 mi South 13.8 mph 28.8 mph 0.01 in   Mostly Cloudy
9:42 PM 66.2 °F 60.8 °F 83% 29.83 in 10.0 mi South 15.0 mph 28.8 mph 0.01 in   Mostly Cloudy
9:53 PM 66.0 °F 61.0 °F 84% 29.76 in 10.0 mi South 13.8 mph 27.6 mph 0.01 in   Scattered Clouds
10:53 PM 66.9 °F 61.0 °F 81% 29.77 in 10.0 mi South 12.7 mph 26.5 mph N/A   Partly Cloudy
11:22 PM 66.2 °F 62.6 °F 88% 29.80 in 10.0 mi South 15.0 mph 31.1 mph N/A   Mostly Cloudy
11:29 PM 66.2 °F 60.8 °F 83% 29.80 in 10.0 mi South 9.2 mph 31.1 mph N/A   Mostly Cloudy
11:53 PM 66.9 °F 62.1 °F 84% 29.77 in 10.0 mi South 15.0 mph 23.0 mph N/A   Partly Cloudy